Flag for Mexico Weather past 2 weeks in Fresnillo, Zacatecas, Mexico

Now
72 °F

Scattered clouds.


Feels Like: 77 °F
Forecast: 53 / 75 °F
Wind: 14 mph from East

Location: Zacatecas Airport

Current Time: Jul 25, 2014 at 1:27:17 PM

Latest Report: Jul 25, 2014 at 12:45 PM


Visibility: 10 mi

Pressure: 30.36 "Hg

Humidity: 41%

Dew point: 46 °F

Location of FresnilloLocation

Historic Weather in Fresnillo — Graph

°F

Fresnillo temperature yesterday

Maximum temperature yesterday: 77 °F (at 4:46 PM)
Minimum temperature yesterday: 57 °F (at 5:25 AM)
Average temperature yesterday: 68 °F

Past Weeks' High & Low Weather Summary

 TemperatureHumidityPressure
High81 °F (Jul 23, 2:45 PM)88% (Jul 11, 5:45 AM)30.40 "Hg (Jul 11, 5:45 AM)
Low48 °F (Jul 13, 6:29 AM)24% (Jul 21, 12:45 PM)30.21 "Hg (Jul 10, 2:45 PM)
Average65 °F57%30.32 "Hg
* Reported Jul 10 12:42 PM — Jul 25 11:48 AM, Fresnillo, Weather by CustomWeather, © 2014

Note: Actual official high and low records may vary slightly from our data, if they occured in-between our weather recording intervals... More about our weather records

Advertising

Fresnillo weather history for previous 24 hours

 ConditionsComfort  
Time TempWeatherWind HumidityBarometerVisibility
11:48 AM
Jul 25
70 °FScattered clouds.5 mph46%30.37 "Hg10 mi
10:47 AM68 °FScattered clouds.7 mph49%30.37 "Hg10 mi
9:48 AM64 °FScattered clouds.5 mph52%30.37 "Hg10 mi
8:48 AM59 °FScattered clouds.5 mph63%30.37 "Hg10 mi
7:54 AM52 °FPassing clouds.No wind72%30.35 "Hg10 mi
6:53 AM52 °FPassing clouds.No wind72%30.34 "Hg10 mi
4:54 AM52 °FClear.No wind67%30.33 "Hg10 mi
3:53 AM54 °FPassing clouds.No wind67%30.33 "Hg10 mi
2:46 AM57 °FPassing clouds.8 mph63%30.34 "Hg10 mi
1:54 AM59 °FPassing clouds.9 mph59%30.34 "Hg10 mi
12:48 AM61 °FPassing clouds.10 mph52%30.34 "Hg10 mi
11:06 PM
Jul 24
61 °FPassing clouds.7 mph45%30.34 "Hg10 mi
6:48 PM75 °FPartly sunny.17 mph25%30.26 "Hg10 mi
5:45 PM75 °FBroken clouds.12 mph27%30.28 "Hg10 mi
4:46 PM77 °FBroken clouds.12 mph26%30.28 "Hg10 mi
1:49 PM73 °FScattered clouds.14 mph33%30.35 "Hg10 mi
Weather by CustomWeather, © 2014

See weather overviewHow to use our weather pages